Location: Le Petit-Vavre
(46.5081°N, 1.5239°E)
Time: 17:53:28
(UTC+00:00)

DMSP B5D2-2 - Pass Details

Date: 03 March 2021
Orbit: 789 x 807 km, 98.3° (Epoch: 15 April)

Event Time Altitude Azimuth Distance (km) Brightness Sun altitude
Rises 19:47:13 0° 11° (N) 3,312 7.3 -22.0°
Reaches altitude 10° 19:49:35 10° 9° (N) 2,375 6.6 -22.4°
Maximum altitude 19:54:46 66° 288° (WNW) 866 4.4 -23.3°
Drops below altitude 10° 19:59:54 10° 207° (SSW) 2,349 6.6 -24.1°
Sets 20:02:13 0° 204° (SSW) 3,273 7.4 -24.5°
